CAPE
2 0 0 0 0 0 0 0 0 0 0 0 0 0 0 0 0 0 0 0 0 0 0 0 0 0 0 0 0 0 0 0 0 0 0 0 0 0 0 0 0 0 0 0
1 0 0 0 0 0 0 0 0 0 0 0 0 0 0 0 0 0 0 0 0 0 0 0 0 0 0 0 0 0 0 0 0 0 0 0 0 0 0 0 0 0 0 0
0 0 0 0 0 0 0 0 0 0 0 0 0 0 0 0 0 0 0 0 0 0 0 0 0 0 0 0 0 0 0 0 0 0 0 0 0 0 0 0 0 0 0 0
0 0 0 0 0 0 0 0 0 0 0 0 0 0 0 0 0 0 0 0 0 0 0 0 0 0 0 0 0 0 0 0 0 0 0 0 0 0 0 0 0 0 0 0
1 0 0 0 0 0 0 0 0 0 0 0 0 0 0 0 0 0 0 0 0 0 0 0 0 0 0 0 0 0 0 1 0 0 0 0 0 0 0 0 0 0 0 0
2 0 0 0 0 0 0 0 0 0 0 0 0 0 0 0 0 0 0 0 0 0 0 0 0 0 0 0 0 21 0 0 0 0 0 0 0 0 0 0 0 0 0 2
2 1 0 0 0 0 0 0 0 0 0 0 0 0 0 0 0 0 0 0 0 0 0 0 0 0 0 0 0 14 17 7 0 0 0 0 0 0 0 0 0 0 0 0
0 2 0 0 0 0 0 0 0 0 0 0 0 0 0 0 0 0 0 0 0 0 0 0 0 0 0 0 15 0 13 2 0 5 0 0 1 0 0 0 0 0 0 0
1 1 0 0 0 0 0 0 0 0 0 0 0 0 0 0 0 0 0 0 0 0 0 0 0 0 0 0 0 0 1 0 0 0 0 0 0 0 0 0 0 0 0 0
2 0 0 0 0 0 0 0 0 0 0 0 0 0 0 0 0 0 0 0 0 0 0 0 0 0 0 0 0 0 0 0 0 0 0 0 0 0 0 0 0 0 0 1
1 0 0 0 0 0 0 0 0 0 0 0 0 0 0 0 0 0 0 0 0 0 0 0 0 0 0 0 0 0 0 0 0 0 0 0 0 4 0 0 0 0 0 3
1 0 0 0 0 0 0 0 0 0 0 0 0 0 0 0 0 0 0 0 0 0 0 0 0 0 0 0 0 0 0 0 1 0 0 0 3 2 1 0 0 0 2 4
0 0 0 0 0 0 0 0 0 0 0 0 0 0 0 0 0 0 0 0 0 0 0 0 0 0 0 0 0 0 0 1 4 0 3 5 2 4 11 4 6 7 10 2
0 0 0 0 0 0 0 0 0 0 0 0 0 0 0 0 0 0 0 0 0 0 0 0 0 0 0 0 0 0 1 0 0 4 5 3 6 6 0 2 0 0 0 0
0 0 0 0 0 0 0 0 0 0 0 0 0 0 0 0 0 0 0 0 0 0 0 0 0 0 0 0 0 1 1 0 0 6 0 1 1 0 0 0 0 0 0 0
0 0 0 0 0 0 0 0 0 0 0 0 0 0 0 0 0 0 0 0 0 0 0 0 0 0 0 0 0 0 0 0 0 0 0 0 0 0 0 0 0 0 0 0
0 0 0 0 0 0 0 0 0 0 0 0 0 0 0 0 0 0 0 0 0 0 0 0 0 0 0 0 0 0 0 0 0 3 1 2 0 0 0 0 0 0 0 0
0 0 0 0 0 0 0 0 0 0 0 0 0 0 0 0 0 0 0 0 0 0 0 0 0 0 0 0 0 0 0 0 0 0 1 2 0 0 0 0 0 0 0 0
0 0 0 0 0 0 0 0 0 0 0 0 0 0 0 0 0 0 0 0 0 0 0 0 0 0 0 0 0 0 0 0 0 1 0 0 0 0 0 0 0 0 0 0
0 0 0 0 0 0 0 0 0 0 0 0 0 0 0 0 0 0 0 0 0 0 0 0 0 0 0 0 0 0 0 0 0 2 0 0 0 0 0 0 0 0 0 0
0 0 0 0 0 0 0 0 0 0 0 0 0 0 0 0 0 0 0 0 0 0 0 0 0 0 0 0 0 0 0 0 0 0 0 0 0 0 0 0 0 0 0 0
0 0 0 0 0 0 0 0 0 0 0 0 0 0 0 0 0 0 0 0 0 0 0 0 0 0 0 0 0 0 0 0 0 0 0 0 0 0 0 0 0 0 0 0
0 0 0 0 0 0 0 0 0 0 0 0 0 0 0 0 0 0 0 0 0 0 0 0 0 0 0 0 0 0 0 0 0 0 0 0 0 0 0 0 0 0 0 0
0 0 0 0 0 0 0 0 0 0 0 0 0 0 0 0 0 0 0 0 0 0 0 0 0 0 0 0 0 0 0 0 0 0 0 0 0 0 0 0 0 0 0 0
0 0 0 0 0 0 0 0 0 0 0 0 0 0 0 0 0 0 0 0 0 0 0 0 0 0 0 0 0 0 0 0 0 0 0 0 0 0 0 0 0 0 0 0
0 0 0 0 0 0 0 0 0 0 0 0 0 0 0 0 0 0 0 0 0 0 0 0 0 0 0 0 0 0 0 0 0 0 0 0 0 0 0 0 0 0 0 0
0 0 0 0 0 0 0 0 0 0 0 0 0 0 0 0 0 0 0 0 0 0 0 0 0 0 0 0 0 0 0 0 0 0 0 0 0 0 1 0 0 0 0 0
CIN
-0 -0 -0 -0 -0 -0 -0 -0 -0 -0 -0 -0 -0 -0 -0 -0 -0 -0 -0 -0 -0 -0 -0 -0 -0 -0 -0 -0 -0 -0 -0 -0 -0 -0 -0 -0 -0 -0 -0 -0 -0 -0 -0 -0
-0 -0 -0 -0 -0 -0 -0 -0 -0 -0 -0 -0 -0 -0 -0 -0 -0 -0 -0 -0 -0 -0 -0 -0 -0 -0 -0 -0 -0 -0 -0 -0 -0 -0 -0 -0 -0 -0 -0 -0 -0 -0 -0 -0
-0 -0 -0 -0 -0 -0 -0 -0 -0 -0 -0 -0 -0 -0 -0 -0 -0 -0 -0 -0 -0 -0 -0 -0 -0 -0 -0 -0 -0 -0 -0 -0 -0 -0 -0 -0 -0 -0 -0 -0 -0 -0 -0 -0
-0 -0 -0 -0 -0 -0 -0 -0 -0 -0 -0 -0 -0 -0 -0 -0 -0 -0 -0 -0 -0 -0 -0 -0 -0 -0 -0 -0 -0 -0 -0 -0 -0 -0 -0 -0 -0 -0 -0 -0 -0 -0 -0 -0
-0 -1 -0 -0 -0 -0 -0 -0 -0 -0 -0 -0 -0 -0 -0 -0 -0 -0 -0 -0 -0 -0 -0 -0 -0 -0 -0 -0 -0 -0 -0 -0 -0 -0 -0 -0 -0 -0 -0 -0 -0 -0 -0 -0
-0 -0 -0 -0 -0 -0 -0 -0 -0 -0 -0 -0 -0 -0 -0 -0 -0 -0 -0 -0 -0 -0 -0 -0 -0 -0 -0 -0 -0 -23 -8 -0 -0 -0 -0 -0 -0 -0 -0 -0 -0 -0 -0 -8
-0 -0 -0 -0 -0 -0 -0 -0 -0 -0 -0 -0 -0 -0 -0 -0 -0 -0 -0 -0 -0 -0 -0 -0 -0 -0 -0 -0 -0 -93 -30 -35 -0 -8 -0 -0 -0 -0 -0 -0 -0 -0 -0 -0
-0 -0 -0 -0 -0 -0 -0 -0 -0 -0 -0 -0 -0 -0 -0 -0 -0 -0 -0 -0 -0 -0 -0 -0 -0 -0 -0 -0 -67 -0 -54 -40 -0 -65 -0 -0 -0 -0 -0 -0 -0 -0 -0 -0
-0 -0 -0 -0 -0 -0 -0 -0 -0 -0 -0 -0 -0 -0 -0 -0 -0 -0 -0 -0 -0 -0 -0 -0 -0 -0 -0 -0 -0 -0 -33 -0 -0 -0 -0 -0 -0 -0 -0 -0 -0 -0 -1 -4
-0 -0 -0 -0 -0 -0 -0 -0 -0 -0 -0 -0 -0 -0 -0 -0 -0 -0 -0 -0 -0 -0 -0 -0 -0 -0 -0 -0 -0 -0 -0 -0 -0 -0 -0 -0 -0 -0 -0 -0 -0 -5 -7 -15
-0 -0 -0 -0 -0 -0 -0 -0 -0 -0 -0 -0 -0 -0 -0 -0 -0 -0 -0 -0 -0 -0 -0 -0 -0 -0 -0 -0 -0 -0 -0 -0 -0 -0 -0 -0 -10 -23 -1 -0 -9 -2 -14 -28
-0 -0 -0 -0 -0 -0 -0 -0 -0 -0 -0 -0 -0 -0 -0 -0 -0 -0 -0 -0 -0 -0 -0 -0 -0 -0 -0 -0 -0 -0 -0 -0 -0 -0 -0 -0 -58 -15 -10 -7 -18 -2 -45 -32
-0 -0 -0 -0 -0 -0 -0 -0 -0 -0 -0 -0 -0 -0 -0 -0 -0 -0 -0 -0 -0 -0 -0 -0 -0 -0 -0 -0 -0 -0 -0 -0 -2 -0 -19 -33 -26 -15 -21 -32 -43 -54 -50 -67
-0 -0 -0 -0 -0 -0 -0 -0 -0 -0 -0 -0 -0 -0 -0 -0 -0 -0 -0 -0 -0 -0 -0 -0 -0 -0 -0 -0 -0 -0 -0 -0 -0 -18 -19 -10 -13 -34 -36 -74 -3 -0 -42 -0
-0 -0 -0 -0 -0 -0 -0 -0 -0 -0 -0 -0 -0 -0 -0 -0 -0 -0 -0 -0 -0 -0 -0 -0 -0 -0 -0 -0 -0 -0 -0 -0 -0 -3 -0 -5 -63 -0 -0 -0 -0 -10 -0 -0
-0 -0 -0 -0 -0 -0 -0 -0 -0 -0 -0 -0 -0 -0 -0 -0 -0 -0 -0 -0 -0 -0 -0 -0 -0 -0 -0 -0 -0 -0 -0 -0 -0 -0 -0 -0 -0 -0 -0 -0 -0 -0 -0 -0
-0 -0 -0 -0 -0 -0 -0 -0 -0 -0 -0 -0 -0 -0 -0 -0 -0 -0 -0 -0 -0 -0 -0 -0 -0 -0 -0 -0 -0 -0 -0 -0 -0 -105 -104 -49 -9 -0 -0 -0 -0 -0 -0 -0
-0 -0 -0 -0 -0 -0 -0 -0 -0 -0 -0 -0 -0 -0 -0 -0 -0 -0 -0 -0 -0 -0 -0 -0 -0 -0 -0 -0 -0 -0 -0 -0 -0 -0 -45 -96 -93 -51 -0 -0 -0 -0 -0 -0
-0 -0 -0 -0 -0 -0 -0 -0 -0 -0 -0 -0 -0 -0 -0 -0 -0 -0 -0 -0 -0 -0 -0 -0 -0 -0 -0 -0 -9 -0 -0 -0 -0 -3 -0 -0 -3 -0 -0 -0 -0 -0 -0 -0
-0 -0 -0 -0 -0 -0 -0 -0 -0 -0 -0 -0 -0 -0 -0 -0 -0 -0 -0 -0 -0 -0 -0 -0 -0 -0 -0 -0 -0 -0 -0 -0 -1 -2 -0 -0 -0 -0 -0 -0 -0 -0 -0 -0
-0 -0 -0 -0 -0 -0 -0 -0 -0 -0 -0 -0 -0 -0 -0 -0 -0 -0 -0 -0 -0 -0 -0 -0 -0 -0 -0 -0 -0 -0 -0 -0 -0 -0 -0 -0 -0 -0 -0 -0 -0 -0 -0 -0
-0 -0 -0 -0 -0 -0 -0 -0 -0 -0 -0 -0 -0 -0 -0 -0 -0 -0 -0 -0 -0 -0 -0 -0 -0 -0 -0 -0 -0 -0 -0 -0 -0 -0 -0 -0 -0 -0 -0 -0 -0 -0 -0 -0
-0 -0 -0 -0 -0 -0 -0 -0 -0 -0 -0 -0 -0 -0 -0 -0 -0 -0 -0 -0 -0 -0 -0 -0 -0 -0 -0 -0 -0 -0 -0 -0 -0 -0 -0 -0 -0 -0 -0 -0 -0 -0 -0 -0
-0 -0 -0 -0 -0 -0 -0 -0 -0 -0 -0 -0 -0 -0 -0 -0 -0 -0 -0 -0 -0 -0 -0 -0 -0 -0 -0 -0 -0 -0 -0 -0 -0 -0 -0 -0 -0 -0 -0 -0 -0 -0 -0 -0
-0 -0 -0 -0 -0 -0 -0 -0 -0 -0 -0 -0 -0 -0 -0 -0 -0 -0 -0 -0 -0 -0 -0 -0 -0 -0 -0 -0 -0 -0 -0 -0 -0 -0 -0 -0 -0 -0 -0 -0 -0 -0 -0 -0
-0 -0 -0 -0 -0 -0 -0 -0 -0 -0 -0 -0 -0 -0 -0 -0 -0 -0 -0 -0 -0 -0 -0 -0 -0 -0 -0 -0 -0 -0 -0 -0 -0 -0 -0 -0 -0 -0 -0 -0 -0 -0 -0 -0
-0 -0 -0 -0 -0 -0 -0 -0 -0 -0 -0 -0 -0 -0 -0 -0 -0 -0 -0 -0 -0 -0 -0 -0 -0 -0 -0 -0 -0 -0 -0 -0 -0 -0 -0 -0 -0 -0 -52 -0 -0 -0 -0 -0
Wind_Speed
31 30 26 24 22 22 17 15 14 13 15 3 7 6 8 17 17 18 17 16 16 15 16 17 17 16 16 17 16 14 16 15 15 14 14 18 17 14 12 12 13 14 15 15
31 30 27 24 22 19 16 14 12 15 17 1 1 11 12 17 18 18 18 16 16 16 17 19 17 17 17 18 15 14 15 15 15 18 17 15 16 15 13 13 13 15 16 14
32 31 28 26 23 20 16 14 10 8 18 17 4 7 14 16 15 15 14 14 15 15 18 19 16 16 17 16 15 14 14 17 16 17 15 12 13 13 9 11 13 13 15 15
33 33 29 27 24 21 18 16 15 12 6 10 12 16 15 14 15 14 16 16 17 15 17 18 17 16 15 17 18 15 15 17 14 14 12 10 11 13 12 13 12 14 14 16
34 34 31 29 26 21 21 18 14 16 13 14 9 17 16 11 10 14 16 15 17 15 16 16 15 14 18 19 20 16 15 15 12 15 10 8 10 12 12 13 13 13 15 18
35 36 34 32 30 26 24 21 21 20 17 12 13 14 11 7 8 16 13 14 16 18 18 19 19 18 19 20 19 18 16 11 13 13 3 6 9 11 10 11 12 13 15 13
36 38 36 34 33 31 23 20 20 19 11 13 15 7 5 6 11 10 13 14 16 17 20 21 23 25 25 25 24 18 10 9 12 4 3 8 6 10 9 9 9 13 2 10
38 40 37 36 35 35 29 21 17 19 14 11 5 2 5 8 10 10 13 16 18 18 20 22 24 25 24 22 26 19 9 7 7 5 5 5 12 15 15 13 10 13 11 12
40 41 39 37 36 33 28 26 24 21 12 16 11 2 4 7 6 8 14 19 20 19 21 23 26 28 27 25 21 7 5 13 9 19 13 22 23 19 18 17 13 13 12 10
42 42 40 37 36 34 29 25 22 19 13 15 13 12 7 6 9 11 19 20 19 19 22 26 27 28 24 27 28 25 19 18 20 22 22 21 22 21 19 20 18 14 10 9
43 43 40 38 37 35 30 25 24 19 13 13 14 13 11 12 12 17 21 20 19 23 25 26 27 27 25 27 24 23 23 25 24 21 23 25 21 21 21 19 15 13 9 7
45 44 40 39 39 35 30 23 21 17 10 10 11 8 11 16 24 19 23 19 21 22 24 24 25 27 26 26 26 19 24 22 22 21 23 23 20 20 18 17 15 12 10 8
47 43 41 41 39 35 31 24 18 9 5 2 9 11 12 11 13 24 21 22 20 23 25 26 25 26 23 24 23 23 20 19 26 23 23 21 18 16 15 15 13 11 9 8
47 43 42 41 39 35 32 25 21 14 11 12 10 11 10 13 15 17 12 21 8 20 13 25 23 24 22 24 25 24 23 21 24 24 20 18 16 14 14 14 13 11 8 14
46 43 44 42 38 33 30 23 20 19 13 16 9 7 6 5 5 10 13 17 26 25 15 12 24 26 26 24 23 22 20 23 24 25 17 16 14 14 14 14 12 15 19 22
45 45 45 41 37 31 26 21 16 17 12 11 15 12 7 3 3 3 4 4 20 26 25 15 19 21 24 24 25 22 21 21 20 19 14 14 14 13 15 18 19 20 22 23
46 46 43 39 36 31 26 24 24 16 9 12 15 16 16 12 7 9 2 9 21 23 22 22 17 12 19 20 23 23 21 19 17 14 11 13 15 16 17 18 20 21 22 23
46 43 40 36 30 25 21 19 18 13 9 12 16 18 18 17 15 17 17 20 18 15 22 23 24 20 19 20 24 23 20 18 13 12 16 17 16 18 19 19 20 22 23 23
43 40 34 29 29 27 25 21 15 11 15 16 17 21 23 21 19 17 17 17 6 19 23 22 22 21 19 24 26 23 20 19 18 17 16 17 18 19 20 20 21 21 23 24
42 38 33 31 29 23 20 22 22 19 17 16 18 18 17 21 18 15 14 13 16 20 21 23 20 19 21 26 25 22 19 18 19 18 17 17 18 19 20 20 20 21 22 23
43 36 30 28 26 24 21 22 24 21 20 18 19 17 11 20 13 11 15 8 13 13 21 20 19 20 24 25 24 22 20 21 21 21 20 20 19 20 21 22 23 23 23 24
39 28 26 26 26 23 23 25 23 23 23 19 19 15 11 14 14 10 11 9 9 10 19 17 18 21 24 24 23 22 22 22 22 21 21 21 22 21 22 22 23 24 24 25
30 28 29 29 26 30 30 31 27 23 23 20 16 15 13 11 11 10 11 10 9 12 11 15 17 22 24 23 21 21 21 21 22 23 23 23 23 22 23 23 23 25 25 26
32 31 34 32 31 32 29 30 25 20 13 18 15 14 14 13 12 11 10 9 6 8 9 11 15 23 23 22 21 20 20 20 20 20 20 20 20 21 21 22 22 23 24 25
28 28 33 31 27 25 23 19 16 12 18 16 12 10 12 14 12 12 9 7 8 6 8 9 19 22 22 21 20 19 18 17 16 16 16 17 18 19 20 22 23 23 24 26
25 25 27 25 24 22 19 14 12 16 16 14 12 13 14 15 10 11 11 6 8 9 6 12 20 21 21 19 17 17 15 15 14 15 15 14 15 17 18 19 21 23 24 25
25 26 22 23 21 19 18 14 16 17 17 16 12 13 16 8 13 12 11 11 10 6 10 16 20 20 19 17 16 15 15 14 14 15 15 16 16 16 17 20 21 23 24 25
Wind_Direction
245 246 256 262 265 264 274 276 282 280 245 67 286 287 302 269 276 282 295 308 308 316 323 322 324 325 325 328 327 327 329 335 333 343 358 1 10 13 21 8 11 23 20 22
244 243 249 253 256 261 262 272 283 256 241 41 288 275 280 266 277 288 301 312 320 323 321 321 326 327 328 325 326 325 327 327 324 326 332 348 354 10 24 38 36 22 16 26
242 239 242 244 246 249 252 262 269 274 241 257 279 287 270 273 297 313 323 323 329 332 328 330 334 334 335 338 334 333 332 320 316 318 332 347 348 1 24 21 17 36 35 38
240 234 237 238 238 238 242 252 258 251 218 265 261 258 270 284 298 310 319 330 331 340 334 336 336 340 343 340 332 330 326 317 330 337 347 3 8 13 26 34 40 24 31 18
235 230 230 231 230 231 233 245 255 245 262 250 262 259 272 294 319 318 326 344 343 352 349 349 345 347 338 331 329 325 326 314 325 324 345 16 11 8 20 12 11 21 26 19
232 227 226 225 222 224 228 237 239 238 245 250 255 267 286 313 349 332 16 30 14 14 20 23 19 11 357 341 326 319 315 308 308 302 336 358 344 346 6 7 8 20 7 22
231 223 223 221 218 219 228 237 238 237 253 243 254 282 336 357 328 26 360 21 34 48 58 45 28 18 7 357 346 334 327 326 324 301 323 311 318 293 316 360 342 359 190 248
229 220 220 217 217 216 226 235 238 233 238 244 260 319 29 18 11 8 10 22 62 79 52 26 14 10 9 7 6 352 360 10 21 47 26 283 239 237 229 242 292 218 240 266
225 217 216 217 216 217 224 227 230 230 227 237 244 328 330 51 353 325 35 65 74 64 43 37 30 27 33 31 49 332 337 213 209 193 210 192 190 205 205 197 227 215 256 254
219 214 214 216 215 215 220 225 226 228 232 231 241 254 269 293 268 41 87 86 73 76 64 58 58 61 86 88 102 125 159 167 168 167 172 181 191 190 196 181 172 215 210 236
215 212 212 213 212 212 215 222 224 226 233 236 240 245 249 241 240 92 113 84 94 89 78 80 85 94 106 115 125 142 147 150 156 164 163 162 185 183 174 183 198 190 211 224
211 210 210 209 208 210 213 221 221 218 234 223 239 274 258 235 167 101 121 106 113 125 99 111 107 108 114 122 124 150 143 157 157 163 159 169 185 180 185 186 189 210 220 235
208 208 208 205 205 206 207 206 203 188 174 235 243 247 246 247 239 180 112 136 128 129 125 119 116 107 123 123 132 142 156 165 150 152 158 167 186 195 201 206 209 211 216 223
205 206 205 203 201 202 199 205 212 216 218 229 240 248 252 243 220 208 180 98 135 87 74 104 123 118 127 127 129 138 151 164 153 153 170 176 184 200 220 226 219 203 181 71
202 203 200 199 200 198 202 212 216 220 231 215 210 231 266 252 26 56 67 76 103 120 127 29 109 122 116 128 132 146 161 158 151 146 188 194 222 250 252 215 169 81 48 30
199 198 195 197 196 195 198 208 227 210 206 203 213 225 238 280 17 23 20 258 167 137 120 94 92 149 124 116 121 139 155 167 183 187 236 239 243 269 329 23 18 24 21 12
195 192 193 194 192 196 206 215 202 201 214 221 214 215 218 219 221 205 322 205 161 152 137 146 113 32 72 77 102 124 152 162 178 220 274 321 339 344 350 11 15 15 8 5
190 190 190 189 194 207 218 199 193 216 231 235 221 215 211 214 205 200 199 173 175 182 143 151 146 161 155 137 131 132 151 167 200 45 21 55 23 356 352 357 358 0 359 355
185 184 181 190 203 205 197 200 215 239 232 227 226 210 210 213 209 207 204 197 314 165 132 144 149 153 136 140 136 146 155 149 153 42 23 24 20 24 11 10 5 5 0 0
176 175 188 194 200 193 192 210 217 227 234 236 224 220 216 206 212 225 230 235 82 116 140 129 129 144 158 145 146 154 163 163 151 138 137 103 59 38 29 27 25 18 16 10
179 186 193 189 186 191 210 215 216 222 225 230 219 212 191 210 226 232 233 303 69 58 131 125 123 126 135 134 132 144 147 119 114 102 94 86 79 54 41 32 27 24 20 16
183 183 179 181 193 209 216 213 218 221 219 221 203 194 201 219 228 258 257 292 312 13 108 104 118 134 131 125 119 112 101 88 85 85 80 76 65 46 36 30 26 25 33 30
175 176 188 196 210 210 211 208 213 215 214 207 179 190 216 233 257 265 274 298 335 67 50 105 121 125 128 125 115 102 100 85 81 79 73 64 63 44 40 38 35 34 31 29
186 192 192 204 207 209 212 207 209 215 201 155 174 204 233 240 252 273 289 300 0 360 20 78 108 128 128 125 117 106 103 93 86 80 74 64 56 48 33 32 32 30 24 22
197 200 200 206 210 209 206 203 201 191 155 162 187 229 240 239 258 269 302 309 332 23 22 56 122 125 124 122 116 110 105 98 90 81 73 65 57 50 42 32 33 33 32 26
203 205 204 205 198 200 202 183 154 151 157 191 225 235 240 252 275 277 293 337 326 329 9 97 121 122 121 118 114 111 102 90 81 78 72 62 59 51 45 35 29 26 25 23
204 203 204 204 199 199 193 175 151 172 191 214 236 247 248 272 270 278 288 297 309 52 83 110 120 121 118 113 106 100 93 86 77 68 55 52 51 54 50 41 34 30 31 35